Regional Weather Roundup
Issued by NWS San Diego, CA

Home | Current Version | Previous Version | Text Only | Print | Product List | Glossary On
Versions: 1 2 3 4 5 6 7 8 9 10 11 12 13 14 15 16 17 18 19 20 21 22 23 24 25 26 27 28 29 30 31 32 33 34 35 36 37 38 39 40 41 42 43 44 45 46 47 48 49 50
000
ASUS46 KSGX 111810
RWRSGX

SAN DIEGO HOURLY WEATHER ROUNDUP
NATIONAL WEATHER SERVICE SAN DIEGO CA
1100 AM PDT FRI JUL 11 2014

NOTE: "FAIR" INDICATES FEW OR NO CLOUDS BELOW 12,000 FEET WITH NO
SIGNIFICANT WEATHER AND/OR OBSTRUCTIONS TO VISIBILITY.

CAZ042-043-060-061-PZZ750-775-111900-

GREATER SAN DIEGO AREA

CITY           SKY/WX    TMP DP  RH WIND       PRES   REMARKS
LINDBERGH FLD  MOSUNNY   76  59  55 W14       30.01S
POINT LOMA       N/A     73  61  65 W16         N/A
NATIONAL CITY    N/A     75  64  67 W12       30.00S
CHULA VISTA      N/A     78  67  68 W12       29.93S
IMPERIAL BEACH MOSUNNY   75  62  64 W16       30.00S
BROWN FIELD    SUNNY     76  61  59 W10       30.00S
MIRAMAR MCAS   MOSUNNY   76  58  53 W9        30.00S
MONTGOMERY FLD SUNNY     77  60  55 NW8       30.00S

$$

NORTH SAN DIEGO COUNTY

CITY           SKY/WX    TMP DP  RH WIND       PRES   REMARKS
CAMP PENDLETON SUNNY     76  59  55 VRB7      29.99S
OCEANSIDE AP   SUNNY     74  61  63 SW8       29.99S
VISTA            N/A     75  64  67 W5        29.97S
CARLSBAD       SUNNY     73  60  63 W8        30.00R
DEL MAR          N/A     75  64  69 CALM      30.02S
LA JOLLA SCRIP   N/A     71  64  79 W6        29.98S
FALLBROOK        N/A     77  62  59 CALM      29.98F
ESCONDIDO        N/A     80  63  55 CALM      30.00S
SAN MARCOS       N/A     74  62  65 W3        29.97S
POWAY            N/A     80  64  58 CALM      29.99F
R. PENASQUITOS   N/A     78  62  58 S8        30.00R

$$

EAST SAN DIEGO COUNTY

CITY           SKY/WX    TMP DP  RH WIND       PRES   REMARKS
RAMONA         SUNNY     78  58  49 W8        30.02S
SANTEE LAKES     N/A     80  61  52 W10       29.99S
GILLESPIE FLD  FAIR      82  57  42 NW6       30.00F
LA MESA          N/A     77  64  63 CALM      29.93S
JAMUL            N/A     78  63  60 W1        29.96F
DESCANSO N       N/A     80  47  32 W3        29.84S
MT. LAGUNA OBS   N/A     71  35  27 CALM      29.77S
CAMPO            N/A     83  45  26 SW9       30.01S

$$

ORANGE COUNTY AND THE LOS ANGELES BASIN

CITY           SKY/WX    TMP DP  RH WIND       PRES   REMARKS
JOHN WAYNE AP  MOSUNNY   76  60  57 CALM      30.00S
LAGUNA BEACH     N/A     74  64  70 CALM      29.97R
LAKE FOREST FR   N/A     77  60  56 CALM      29.90F
SANTA ANA        N/A     76  66  71 CALM      29.95S
HUNTINGTON BCH   N/A     74  64  69 S3        30.03R
LOS ALAMITOS   SUNNY     75  62  62 VRB5      30.00S
FULLERTON      SUNNY     78  59  51 VRB3      29.99S
LONG BEACH     SUNNY     74  60  61 S9        30.00S
L.A. AP        MOSUNNY   73  59  61 W14       30.01S
L.A. DOWNTOWN  SUNNY     78  58  49 CALM      29.99S

$$

THE INLAND EMPIRE

CITY           SKY/WX    TMP DP  RH WIND       PRES   REMARKS
CORONA         SUNNY     77  61  57 CALM      30.00F
CHINO          SUNNY     79  62  56 VRB3      30.01S
ONTARIO        SUNNY     77  59  53 W6        30.00S
SAN BERNARDINO SUNNY     79  55  44 W8        30.01S HAZE
RIVERSIDE AP   SUNNY     76  60  57 W6        30.00S
RIV CYN CREST    N/A     75  68  78 W5        29.97S
MORENO VALLEY    N/A     81  61  50 W3        28.10F
MARCH ARB      SUNNY     81  60  48 VRB6      30.01S
HORSETHIEF CYN   N/A     78  56  46 NW6       29.99S
PERRIS           N/A     81  56  42 CALM        N/A
MENIFEE          N/A     81  58  46 SE2       30.06S
HEMET EAST       N/A     81  46  29 CALM      29.95S
FRENCH VALLEY  FAIR      77  59  53 W8        30.01F
TEMECULA         N/A     78  61  54 W2        29.96F

$$

SAN BERNARDINO AND RIVERSIDE COUNTY MOUNTAINS

CITY           SKY/WX    TMP DP  RH WIND       PRES   REMARKS
BIG BEAR AP    SUNNY     68  32  26 NE3       30.26S
BIG BEAR SHEA    N/A     68  31  25 NE6       29.97R
ANGELUS OAKS     N/A     71  40  31 CALM      29.85R
PINE COVE        N/A     71  40  32 W1        29.93R

$$

SOUTHERN DESERT INCLUDING THE COACHELLA VALLEY

CITY           SKY/WX    TMP DP  RH WIND       PRES   REMARKS
PALM SPRINGS   SUNNY     96  42  15 CALM      29.89S
THOUSAND PALMS   N/A     96  44  16 NE2       29.84S
PALM DESERT      N/A     99  52  20 CALM      28.99S HX  96
THERMAL        SUNNY     97  51  21 VRB5      29.82F
BLYTHE         SUNNY    102  35  10 NW12      29.85F HX  96
IMPERIAL AP    SUNNY     99  43  14 CALM      29.83F HX  95
EL CENTRO NAS  MOSUNNY  100  43  14 NW3       29.83F HX  96
YUMA AZ        PTSUNNY  101  39  12 W9        29.86S HX  96
MEXICALI       MOSUNNY   97  43  15 NW7       29.86

$$

UPPER DESERT

CITY           SKY/WX    TMP DP  RH WIND       PRES   REMARKS
VICTORVILLE AP SUNNY     88  34  14 SE3       30.03S
HESPERIA         N/A     86  38  17 NW1       29.98S
APPLE VALLEY     N/A     87  34  15 W1        30.06S
GRAY BUTTE AP  FAIR      86  33  15 N5        30.03S
PALMDALE       SUNNY     86  42  21 W9        30.01S
LANCASTER      SUNNY     87  41  19 SW15G22   30.00R
EDWARDS AFB    SUNNY     87  40  18 W12       29.98S
DAGGETT        SUNNY     91  38  15 NW15      29.96S
29 PALMS N     MOSUNNY   92  36  14 E7        30.03F
NEEDLES        SUNNY     95  61  32 VRB5      29.90S HX  95

$$

REGIONAL REPORTS

CITY           SKY/WX    TMP DP  RH WIND       PRES   REMARKS
SANTA BARBARA  PTSUNNY   71  60  68 S8        30.01R
SANDBERG       SUNNY     78  41  26 S14       30.14S
MT. WILSON       N/A     73  48  40 MISG        N/A
LAS VEGAS NV   MOSUNNY   89  58  34 CALM      29.95S
PHOENIX AZ     MOSUNNY   99  56  23 VRB3      29.89S HX  97
TIJUANA        MOSUNNY   77  57  50 NW12      30.02S
ENSENADA NW      N/A     71  32  23 W14       29.97R

$$

OFFSHORE ISLANDS

CITY           SKY/WX    TMP DP  RH WIND       PRES   REMARKS
CATALINA ARPT  SUNNY     67  56  67 W8        30.05R
SAN CLEMENTE I PTSUNNY   71  58  63 W14       30.05R
SAN NICOLAS IS PTSUNNY   68  58  70 NW15G23   30.04R

$$

MARINE AND OFFSHORE BUOY REPORTS

STATION/POSITION SKY/WX   TEMP    WIND        PRES    SWELL
                          AIR SEA DIR/SP/G            HT/PER/DIR
                          (F)     (DEG/KT/KT) (MB)    (FT/S/D)
TANNER BANKS               63 63  310/  8/ 10 1017.5R   3/320/10
S CLEMENTE BASIN           66 69  310/ 10/ 12 1016.4R   2/280/11
SO. S. ROSA ISLA           63 67  310/ 12/ 14 1016.8R   3/10
W. S. BARBARA CH           62 63  310/ 12/ 16 1016.3R   3/310/10
M. S. BARBARA CH           64 67  260/ 10/ 12 1016.1
S. MONICA BASIN            66 71  290/  6/  8 1016.3R   2/200/12
S PEDRO CHANNEL               71                N/A     2/170/13
DANA POINT                    73                N/A     2/200/12
CMP PENDLETON NS              74                N/A     2/210/12
OCEANSIDE OFFSHR              72                N/A     2/210/11
TORREY PINES OTR              74                N/A     2/220/11
LA JOLLA 1                 71 74  330/  6/  8 1016.1S
MISSION BAY BUOY              74                N/A     2/230/11
SAN DIEGO BAY                 76              1016.2S
POINT LOMA SOUTH              72                N/A     2/200/13

$$




USA.gov is the U.S. government's official web portal to all federal, state and local government web resources and services.